Winnerscup USA - trainer

Station: Trainer 25 Miles - T Race

Distance: 25 Miles

Release: 15-Apr-2018 09:35

Weather Release:    Arrival: clear crisp, cold

Wind at Release: variable     Wind at Arrival: variable

Temp at Release: °    Temp at Arrival: °

Lofts: 53

Birds: 170

Clocked: 164

Good Luck to Everyone!
Drops Pos Breeder Pigeon Name Color Sex Ent Arrival Speed To Win Eligible AB
1 Champ Camp - IN 0225-AU17-CHMP Point Well Taken BB C 1 10:22:49.00 920.181 00:00:00 Yes
1 Sextons Loft - IA 31786-AU17-AA Dialed 4 Dollars WHGZ C 1 10:22:49.00 920.181 00:00:00 Yes
3 Dal-Tex R P C - TX 0448-AU17-DLLS Esmeralda BC H 1 10:22:53.00 918.900 00:00:04 Yes
3 Champ Camp - IN 0240-AU17-CHMP Iron Mike BB C 2 10:22:53.00 918.900 00:00:04 Yes
5 Sextons Loft - IA 31762-AU17-AA Ladesma BC H 2 10:22:54.00 918.580 00:00:05 Yes
6 Jack's Loft - CA 36719-AU17-ARPU Mas Arena BC C 1 10:22:55.00 918.261 00:00:06 Yes
6 Bolgar Loft - CA 15841-AU17-FOYS Darejani SLAT H 1 10:22:55.00 918.261 00:00:06 Yes
8 Sextons Loft - IA 31777-AU17-AA Possible Witness BC C 3 10:22:57.00 917.623 00:00:08 Yes
9 Racing Pigeon Mall - WA 0730-AU17-RPM Opium BB C 1 10:22:58.00 917.304 00:00:09 Yes
9 1-Tonyloft - VA 0639-AU17-ZHNG Check me Twice BC C 1 10:22:58.00 917.304 00:00:09 Yes
9 Champ Camp - IN 0237-AU17-CHMP Dark Runner SMOK C 3 10:22:58.00 917.304 00:00:09 Yes
12 Acre Farms - CA 0346-AU17-GENE Take 5 BC C 1 10:23:00.00 916.667 00:00:11 Yes
13 Hollywood Lou Loft - FL 0056-AU17-LOU Escapade BC C 1 10:23:01.00 916.348 00:00:12 Yes
13 John Partridge - CA 0618-AU17-PASO The Aristocrat BC C 1 10:23:01.00 916.348 00:00:12 Yes
15 Hollywood Lou Loft - FL 0067-AU17-LOU Key Witness SMBB C 2 10:23:02.00 916.031 00:00:13 Yes
16 Walstons Warriors - NC 7410-AU17-GL Dullah Bhati BB C 1 10:23:03.00 915.713 00:00:14 Yes
16 Jack's Loft - CA 36716-AU17-ARPU The Magician GR C 2 10:23:03.00 915.713 00:00:14 Yes
18 P/R Loft - CA 0279-AU17-GSF Desciple BCW C 1 10:23:05.00 915.078 00:00:16 Yes
18 Acre Farms - CA 0342-AU17-GENE Grouponner BC H 2 10:23:05.00 915.078 00:00:16 Yes
20 Larry Lewis - OK 8156-AU17-TRPC Clippers Hero BC C 1 10:23:06.00 914.761 00:00:17 Yes
21 Spirit In The Sky - IL 0371-AU17-LCC John Paul BB C 1 10:23:07.00 914.444 00:00:18 Yes
22 Sextons Loft - IA 31766-AU17-AA Adverse Condition BB C 4 10:23:08.00 914.127 00:00:19 Yes
23 John Partridge - CA 0629-AU17-PASO Americana RC C 2 10:23:09.00 913.811 00:00:20 Yes
23 Red Ass Ranch - TX 0163-AU17-RAR Hulk Hogan's Back SMOK C 1 10:23:09.00 913.811 00:00:20 Yes
23 A D L Sheila - IL 0220-AU17-ADL Silhouette BB H 1 10:23:09.00 913.811 00:00:20 Yes
26 Red Ass Ranch - TX 0149-AU17-RAR Blue Diva BB H 2 10:23:10.00 913.495 00:00:21 Yes
26 Sextons Loft - IA 31763-AU17-AA New Apollo BC C 5 10:23:10.00 913.495 00:00:21 Yes
26 Jack's Loft - CA 4395-AU17-FOYS Chosen Pleasure BBPD H 3 10:23:10.00 913.495 00:00:21 Yes
29 Dream Team - VT 0358-AU17-JCZL Game On BC C 1 10:23:12.00 912.863 00:00:23 Yes
29 Team Fujitake - HI 13911-AU17-FOYS Blue Hilo BBWF H 1 10:23:12.00 912.863 00:00:23 Yes
31 Champ Camp - IN 0224-AU17-CHMP Turning Point BB C 4 10:23:13.00 912.548 00:00:24 Yes
32 Sofija Loft - IL 0011-AU17-BEKO Ludacris BBPD C 1 10:23:14.00 912.232 00:00:25 Yes
32 Jack's Loft - CA 4393-AU17-FOYS Today's Hero SIL C 4 10:23:14.00 912.232 00:00:25 Yes
34 Ganus Family Loft - IN 0292-AU17-GFL Planet Icon BC H 1 10:23:15.00 911.917 00:00:26 Yes
35 Sextons Loft - IA 31781-AU17-AA Mitigator BB C 6 10:23:18.00 910.973 00:00:29 Yes
35 Prout Loft - CA 28550-AU17-JEDD TABLOID BC C 1 10:23:18.00 910.973 00:00:29 Yes
37 Daehn/Miele - FL 0402-AU17-NWFI Scheckles BB C 1 10:23:20.00 910.345 00:00:31 Yes
38 Goshentown Lofts - TN 1777-AU17-NPA Whisper BB H 1 10:23:21.00 910.031 00:00:32 Yes
38 A D L Loft - IL 0168-AU17-ADL Maverick BB H 1 10:23:21.00 910.031 00:00:32 Yes
40 Champ Camp - IN 0231-AU17-CHMP NEVER BEFORE BB C 5 10:23:24.00 909.091 00:00:35 Yes
41 Sofija Loft - IL 0019-AU17-BEKO Baraccuda BB H 2 10:23:26.00 908.465 00:00:37 Yes
42 Hollywood Lou Loft - FL 0061-AU17-LOU Brilliance BB C 3 10:23:29.00 907.528 00:00:40 Yes
42 Sofija Loft - IL 0023-AU17-BEKO Muves BB H 3 10:23:29.00 907.528 00:00:40 Yes
42 Nesler Boyz - CA 1796-AU17-TCH Front Runner BWFP C 1 10:23:29.00 907.528 00:00:40 Yes
45 Bolgar Loft - CA 7650-AU17-FTST Red Dawn RC C 2 10:23:31.00 906.905 00:00:42 Yes
46 Ojibwe Loft - OK 0040-AU17-OJIB TICKELO BB H 1 10:26:23.00 856.309 00:03:34 Yes
46 Larry Lewis - OK 8155-AU17-TRPC Mind Raker RCPD C 2 10:26:23.00 856.309 00:03:34 Yes
48 El Dorado Loft - TX 0184-AU17-TXAS Manfreddy BKCW C 1 10:26:25.00 855.754 00:03:36 Yes
49 Daehn/Miele - FL 0401-AU17-NWFI Super Man BB C 2 10:26:27.00 855.199 00:03:38 Yes
50 A B C Loft2 - NY 59780-AU17-ARPU National Asset BB C 1 10:26:29.00 854.646 00:03:40 Yes
51 Ganus Family Loft - IN 0296-AU17-GFL Draft Me Now BC C 2 10:26:32.00 853.816 00:03:43 Yes
52 Sienna Loft - NC 36820-AU17-AA Baby Doll BC H 1 10:26:35.00 852.989 00:03:46 Yes
52 Champ Camp - IN 0230-AU17-CHMP Rain Man BB C 6 10:26:35.00 852.989 00:03:46 Yes
54 John Partridge - CA 0623-AU17-PASO Monet BBWF C 3 10:26:39.00 851.888 00:03:50 Yes
55 Daehn/Miele - FL 3840-AU17-FOYS Steady Freddie BB C 3 10:26:40.00 851.613 00:03:51 Yes
56 Sienna Loft - NC 36773-AU17-AA American Pied BCP C 2 10:26:41.00 851.338 00:03:52 Yes
57 Nesneb Racing Loft - AL 17146-AU17-MOB Done That BBWF C 1 10:26:42.00 851.064 00:03:53 Yes
58 Racing Pigeon Mall - WA 0724-AU17-RPM Bet America BB C 2 10:26:43.00 850.790 00:03:54 Yes
58 Ganus Family Loft - IN 0295-AU17-GFL Delerionn BC H 3 10:26:43.00 850.790 00:03:54 Yes
60 Jimmy Zheng Loft - MS 0651-AU17-ZHNG Epanema Dream BBWF H 1 10:26:44.00 850.515 00:03:55 Yes
61 A B C Loft2 - NY 11771-AU17-ARPU Etherium BB C 2 10:26:45.00 850.242 00:03:56 Yes
61 Racing Pigeon Mall - WA 0713-AU17-RPM Gotta Take Notice BB C 3 10:26:45.00 850.242 00:03:56 Yes
63 Hollywood Lou Loft - FL 0064-AU17-LOU American South BB C 4 10:26:48.00 849.421 00:03:59 Yes
64 Daehn/Miele - FL 3834-AU17-FOYS Time Toy GR C 4 10:26:56.00 847.240 00:04:07 Yes
65 John Partridge - CA 0619-AU17-PASO Moon Twister BC H 4 10:26:59.00 846.425 00:04:10 Yes
66 A P C Loft - TX 17323-AU17-APC Clever Endeavor BCW C 1 10:27:00.00 846.154 00:04:11 Yes
66 Jimmy Zheng Loft - MS 0628-AU17-ZHNG Born Again BC C 2 10:27:00.00 846.154 00:04:11 Yes
68 Sextons Loft - IA 31779-AU17-AA Svetlana BC H 7 10:27:01.00 845.883 00:04:12 Yes
69 Tar Syndicate - PA 7974-AU17-TAR Cloud 74 VELV C 1 10:27:05.00 844.800 00:04:16 Yes
69 G & L Loft - OR 2394-AU17-WPC Affirmation BB C 1 10:27:05.00 844.800 00:04:16 Yes
71 Racing Pigeon Mall - WA 0712-AU17-RPM Third Down Charley BC C 4 10:27:06.00 844.530 00:04:17 Yes
72 Larry Lewis - OK 8151-AU17-TRPC Only Hope BC H 3 10:27:07.00 844.260 00:04:18 Yes
73 Champ Camp - IN 0275-AU17-CHMP Scirrocco BB H 7 10:27:08.00 843.990 00:04:19 Yes
74 G & L Loft - OR 2392-AU17-WPC American Standard BWFP C 2 10:27:10.00 843.450 00:04:21 Yes
75 A D L Sheila - IL 0225-AU17-ADL Outlaw Josey Wells BCW C 2 10:27:11.00 843.181 00:04:22 Yes
76 Daehn/Miele - FL 3837-AU17-FOYS French Braid BB H 5 10:27:12.00 842.912 00:04:23 Yes
76 A P C Loft - TX 17369-AU17-APC Let It Be Known BC C 2 10:27:12.00 842.912 00:04:23 Yes
78 Goshentown Lofts - TN 1796-AU17-NPA Dossier 96 BB H 2 10:27:13.00 842.643 00:04:24 Yes
78 Dream Team - VT 0576-AU17-JCZL Maze Runner BB C 2 10:27:13.00 842.643 00:04:24 Yes
80 Hollywood Lou Loft - FL 0074-AU17-LOU Imposter BWFP C 5 10:27:15.00 842.105 00:04:26 Yes
81 Nesneb Racing Loft - AL 17134-AU17-MOB Widowed BC H 2 10:27:16.00 841.837 00:04:27 Yes
82 Larry Lewis - OK 8161-AU17-TRPC Vixen GP H 4 10:27:18.00 841.300 00:04:29 Yes
82 Walstons Warriors - NC 7404-AU17-GL NAPOLEON BB C 2 10:27:18.00 841.300 00:04:29 Yes
84 Bluestreak - OK 7809-AU17-TRPC Indecent Proposal BL H 1 10:27:19.00 841.032 00:04:30 Yes
85 Sextons Loft - IA 31771-AU17-AA The Mediator BC C 8 10:27:20.00 840.764 00:04:31 Yes
85 Champ Camp - IN 0265-AU17-CHMP Hell Fire BWFP C 8 10:27:20.00 840.764 00:04:31 Yes
87 Crescendo Loft - NM 18441-AU17-AA Horizon Echo BB C 1 10:27:21.00 840.497 00:04:32 Yes
88 Larry Lewis - OK 8146-AU17-TRPC No Exemption BC C 5 10:27:22.00 840.229 00:04:33 Yes
89 Ken Easley-Silvercreek - NM 5140-AU17-ESLY Kees BB H 1 10:27:26.00 839.161 00:04:37 Yes
90 A D L Loft - IL 0192-AU17-ADL Over Achiever BBWF C 2 10:27:29.00 838.361 00:04:40 Yes
91 Larry Lewis - OK 8163-AU17-TRPC Follow The Money BC C 6 10:27:30.00 838.095 00:04:41 Yes
92 Hollywood Lou Loft - FL 0063-AU17-LOU The Celebrity BB C 6 10:27:32.00 837.563 00:04:43 Yes
93 Bolgar Loft - CA 7625-AU17-FTST NICHOLEYE BB C 3 10:27:38.00 835.972 00:04:49 Yes
93 Jack's Loft - CA 36718-AU17-ARPU Britanny GR H 5 10:27:38.00 835.972 00:04:49 Yes
95 Hollywood Lou Loft - FL 0062-AU17-LOU Midnite Lace BB H 7 10:27:41.00 835.179 00:04:52 Yes
96 Ojibwe Loft - OK 0041-AU17-OJIB HIGHWATER BB C 2 10:27:43.00 834.651 00:04:54 Yes
97 Sarrett Racing Pigeons - TX 7048-AU17-PPH Target' BB H 1 10:27:44.00 834.387 00:04:55 Yes
98 Nesler Boyz - CA 1797-AU17-TCH Done It All BC H 2 10:27:45.00 834.123 00:04:56 Yes
99 Racing Pigeon Mall - WA 0717-AU17-RPM Rachel Evans BROZ H 5 10:27:48.00 833.333 00:04:59 Yes
100 Canto & Wiltz - MA 10985-AU17-AA Dream City BB C 1 10:27:51.00 832.545 00:05:02 Yes

There are 259 bird records

Note: These Race Results are unofficial and subject to change until verified by the Race Committee and declared final.